Regional Weather Roundup
Issued by NWS

Home | Current Version | Previous Version | Text Only | Print | Product List | Glossary Off
Versions: 1 2 3 4 5 6 7 8 9 10 11 12 13 14 15 16 17 18 19 20 21 22 23 24 25 26 27 28 29 30 31 32 33 34 35 36 37 38 39 40 41 42 43 44 45 46 47 48 49 50

095
ASUS43 KLMK 241802
RWRKY
KENTUCKY REGIONAL WEATHER ROUNDUP
NATIONAL WEATHER SERVICE LOUISVILLE KY
200 PM EDT MON JUL 24 2017

NOTE "FAIR" INDICATES FEW OR NO CLOUDS BELOW 12,000 FEET
WITH NO SIGNIFICANT WEATHER AND/OR OBSTRUCTIONS TO VISIBILITY.

KYZ001>023-026-027-061>063-070>075-241900-
WESTERN AND SOUTH CENTRAL KENTUCKY

CITY           SKY/WX    TMP DP  RH WIND       PRES   REMARKS
PADUCAH        MOSUNNY   91  72  53 CALM      29.94S HX  98
HENDERSON      CLOUDY    87  76  69 NW7       29.94F HX  97
OWENSBORO      MOSUNNY   88  76  67 SW9       29.94F HX  99
HOPKINSVILLE   CLOUDY    87  75  68 SW7       29.96S HX  96
BOWLING GREEN  CLOUDY    89  73  59 W8        29.96S HX  97
GLASGOW        NOT AVBL
$$

KYZ024-025-028>034-038-045-046-053-241900-
NORTH CENTRAL KENTUCKY

CITY           SKY/WX    TMP DP  RH WIND       PRES   REMARKS
LOUISVILLE/SDF PTSUNNY   91  71  51 NW12      29.92F HX  97
LOUISVILLE/LOU MOSUNNY   89  71  55 NW8       29.93S HX  95
FORT KNOX      MOSUNNY   87  72  61 W7        29.94S HX  92
$$

KYZ035>037-039>044-047>052-055>060-089>105-241900-
NORTHEAST KENTUCKY

CITY           SKY/WX    TMP DP  RH WIND       PRES   REMARKS
LEXINGTON      CLOUDY    84  71  65 W9        29.96S
COVINGTON      MOSUNNY   84  66  54 N12       29.95S
FRANKFORT      MOSUNNY   87  70  56 VRB6      29.94S HX  92
$$

KYZ054-064>069-076>088-106>120-241900-
SOUTHEAST KENTUCKY

CITY           SKY/WX    TMP DP  RH WIND       PRES   REMARKS
JACKSON        PTSUNNY   84  73  69 CALM      29.98S HX  90
LONDON         MOSUNNY   87  66  49 W8        29.99S
SOMERSET       CLOUDY    84  66  54 S3        29.99R
MIDDLESBORO    MOSUNNY   86  69  56 W3        30.00S HX  90
MONTICELLO     NOT AVBL
$$





USA.gov is the U.S. government's official web portal to all federal, state and local government web resources and services.